Location: Unspecified
(0.0000°N, 0.0000°E)
Time: 00:25:10
(UTC+02:00)

Tiros 1 despin weight - All Passes

Search period start: 03 August 2015 00:00
Search period end: 13 August 2015 00:00
Orbit: 597 x 647 km, 48.2° (Epoch: 01 August)

Date Brightness Start Highest point End Pass type
(mag) Time Alt. Az. Time Alt. Az. Time Alt. Az.
03 Aug - 04:51:23 10° N 04:55:01 23° NE 04:58:46 10° ESE night (unlit)
03 Aug - 06:32:35 10° WNW 06:36:37 28° SW 06:40:34 10° S visible
03 Aug - 16:59:55 10° SSW 17:03:56 35° SE 17:08:01 10° ENE daylight
03 Aug - 18:42:42 10° W 18:45:32 16° NW 18:48:11 10° NNW daylight
04 Aug - 05:08:16 10° NNW 05:12:54 63° NE 05:17:33 10° SE night (unlit)
04 Aug - 06:53:46 10° WSW 06:54:38 10° SW 06:55:11 10° SW visible
04 Aug - 17:17:21 10° SW 17:21:47 77° NW 17:26:12 10° NE daylight
05 Aug - 03:46:41 10° NNE 03:49:04 14° NE 03:51:41 10° E night (unlit)
05 Aug - 05:26:14 10° NW 05:30:44 45° SW 05:35:13 10° SSE night (unlit)
05 Aug - 15:54:46 10° S 15:58:04 21° SE 16:01:30 10° E daylight
05 Aug - 17:35:53 10° WSW 17:39:38 26° NW 17:43:18 10° N daylight
06 Aug - 04:02:43 10° NNW 04:07:03 37° NE 04:11:24 10° ESE night (unlit)
06 Aug - 05:45:29 10° W 05:48:40 17° SW 05:51:40 10° S night (unlit)
06 Aug - 16:11:36 10° SSW 16:15:57 61° SE 16:20:19 10° NE daylight
07 Aug - 04:20:10 10° NW 04:24:52 78° SW 04:29:34 10° SE night (unlit)
07 Aug - 14:50:15 10° SSE 14:52:10 13° SE 14:54:17 10° ESE daylight
07 Aug - 16:29:33 10° WSW 16:33:46 43° NW 16:37:59 10° NNE daylight
08 Aug - 02:57:29 10° N 03:01:08 23° NE 03:04:54 10° ESE night (unlit)
08 Aug - 04:38:40 10° WNW 04:42:44 28° SW 04:46:43 10° S night (unlit)
08 Aug - 15:06:06 10° SSW 15:10:07 35° SE 15:14:11 10° ENE daylight
08 Aug - 16:48:55 10° W 16:51:41 16° NW 16:54:18 10° NNW daylight
09 Aug - 03:14:22 10° NNW 03:19:01 63° NE 03:23:40 10° SE night (unlit)
09 Aug - 04:59:45 10° WSW 05:00:45 10° SW 05:01:26 10° SW night (unlit)
09 Aug - 15:23:31 10° SW 15:27:56 77° NW 15:32:21 10° NE daylight
10 Aug - 01:52:48 10° NNE 01:55:10 14° NE 01:57:47 10° E night (unlit)
10 Aug - 03:32:18 10° NW 03:36:50 46° SW 03:41:20 10° SSE night (unlit)
10 Aug - 14:00:55 10° S 14:04:14 21° SE 14:07:40 10° E daylight
10 Aug - 15:42:03 10° WSW 15:45:47 26° NW 15:49:26 10° N daylight
11 Aug - 02:08:49 10° NNW 02:13:07 37° NE 02:17:30 10° ESE night (unlit)
11 Aug - 03:51:33 10° W 03:54:45 17° SW 03:57:47 10° S night (unlit)
11 Aug - 14:17:45 10° SSW 14:22:07 61° SE 14:26:28 10° NE daylight
12 Aug - 02:26:15 10° NW 02:30:57 78° SW 02:35:39 10° SE night (unlit)
12 Aug - 12:56:23 10° SSE 12:58:18 13° SE 13:00:26 10° ESE daylight
12 Aug - 14:35:42 10° WSW 14:39:55 43° NW 14:44:07 10° NNE daylight
